| time (UTC) | temp C | wind direction | speed KPH | gust KPH | rain 1hr cm | rain 24hr cm | rain mn cm | humidity % | barometer mb |
| 20260507014619 | 7 | 115 | 0.0 | 1.6 | 0.08 | 2.84 | 2.74 | 87 | 1010.4 |
| 20260507013053 | 7 | 143 | 0.0 | 1.6 | 0.10 | 2.84 | 2.72 | 87 | 1010.3 |
| 20260507011558 | 7 | 120 | 0.0 | 3.2 | 0.13 | 2.84 | 2.72 | 87 | 1010.2 |
| 20260507010049 | 7 | 56 | 0.0 | 3.2 | 0.10 | 2.82 | 2.69 | 86 | 1010.1 |
| 20260507004547 | 7 | 205 | 0.0 | 3.2 | 0.08 | 2.79 | 2.67 | 87 | 1009.9 |
| 20260507003045 | 7 | 136 | 0.0 | 3.2 | 0.03 | 2.74 | 2.62 | 86 | 1009.7 |
| 20260507001557 | 7 | 206 | 0.0 | 3.2 | 0.03 | 2.72 | 2.59 | 86 | 1009.3 |
| 20260507000053 | 7 | 148 | 0.0 | 3.2 | 0.08 | 2.72 | 2.59 | 86 | 1009.2 |
| 20260506234549 | 7 | 169 | 0.0 | 6.4 | 0.10 | 2.72 | 2.59 | 86 | 1008.7 |
| 20260506233039 | 7 | 270 | 0.0 | 3.2 | 0.10 | 2.72 | 2.59 | 86 | 1008.3 |
| 20260506231536 | 8 | 115 | 0.0 | 3.2 | 0.05 | 2.67 | 2.54 | 86 | 1008.2 |
| 20260506230032 | 8 | 201 | 0.0 | 4.8 | 0.03 | 2.64 | 2.51 | 86 | 1008.0 |
| 20260506224533 | 8 | 205 | 0.0 | 3.2 | 0.03 | 2.62 | 2.49 | 86 | 1007.8 |
| 20260506223031 | 8 | 141 | 0.0 | 3.2 | 0.05 | 2.62 | 2.49 | 86 | 1007.4 |
| 20260506221531 | 8 | 188 | 0.0 | 3.2 | 0.05 | 2.62 | 2.49 | 85 | 1007.3 |
| 20260506220031 | 8 | 113 | 1.6 | 8.0 | 0.05 | 2.62 | 2.49 | 85 | 1006.7 |
| 20260506214527 | 8 | 94 | 0.0 | 6.4 | 0.58 | 2.59 | 2.46 | 85 | 1006.4 |
| 20260506213024 | 8 | 275 | 1.6 | 8.0 | 0.66 | 2.57 | 2.44 | 85 | 1006.4 |
| 20260506211535 | 9 | 196 | 3.2 | 8.0 | 0.66 | 2.57 | 2.44 | 84 | 1005.8 |
| 20260506210030 | 11 | 48 | 1.6 | 8.0 | 0.66 | 2.57 | 2.44 | 82 | 1005.6 |
| 20260506204516 | 13 | 239 | 1.6 | 9.7 | 0.10 | 2.01 | 1.88 | 80 | 1004.6 |
| 20260506203013 | 16 | 8 | 0.0 | 3.2 | 0.00 | 1.91 | 1.78 | 86 | 1004.4 |
| 20260506201513 | 16 | 55 | 0.0 | 1.6 | 0.03 | 1.91 | 1.78 | 86 | 1004.4 |
| 20260506200012 | 16 | 44 | 0.0 | 4.8 | 0.05 | 1.91 | 1.78 | 86 | 1004.6 |
| 20260506194507 | 16 | 38 | 0.0 | 3.2 | 0.08 | 1.91 | 1.78 | 86 | 1004.7 |
| 20260506193009 | 16 | 54 | 0.0 | 4.8 | 0.20 | 1.91 | 1.78 | 86 | 1004.9 |
| 20260506191507 | 16 | 42 | 0.0 | 4.8 | 0.28 | 1.88 | 1.75 | 86 | 1004.9 |
| 20260506190006 | 16 | 67 | 1.6 | 6.4 | 0.30 | 1.85 | 1.73 | 86 | 1004.8 |
| 20260506184504 | 16 | 44 | 0.0 | 3.2 | 0.33 | 1.83 | 1.70 | 86 | 1005.0 |
| 20260506183004 | 15 | 69 | 0.0 | 3.2 | 0.41 | 1.70 | 1.57 | 86 | 1005.0 |
| 20260506181506 | 16 | 32 | 0.0 | 3.2 | 0.38 | 1.60 | 1.45 | 86 | 1005.1 |
| 20260506180003 | 16 | 32 | 0.0 | 6.4 | 0.41 | 1.55 | 1.42 | 86 | 1005.1 |
| 20260506174600 | 15 | 37 | 1.6 | 6.4 | 0.43 | 1.50 | 1.37 | 86 | 1005.1 |
| 20260506173127 | 15 | 49 | 0.0 | 1.6 | 0.28 | 1.30 | 1.17 | 86 | 1005.5 |
| 20260506171559 | 15 | 36 | 0.0 | 4.8 | 0.28 | 1.22 | 1.09 | 87 | 1005.4 |
| 20260506170106 | 15 | 50 | 0.0 | 3.2 | 0.25 | 1.14 | 1.02 | 87 | 1005.5 |
| 20260506164552 | 14 | 41 | 0.0 | 1.6 | 0.25 | 1.07 | 0.94 | 87 | 1005.7 |
| 20260506163056 | 13 | 92 | 0.0 | 1.6 | 0.25 | 0.99 | 0.86 | 85 | 1005.9 |
| 20260506161549 | 13 | 92 | 0.0 | 1.6 | 0.25 | 0.94 | 0.81 | 85 | 1006.0 |
| 20260506160046 | 13 | 91 | 0.0 | 1.6 | 0.25 | 0.86 | 0.71 | 85 | 1006.3 |
| 20260506154603 | 13 | 92 | 0.0 | 1.6 | 0.28 | 0.81 | 0.69 | 85 | 1006.7 |
| 20260506153041 | 12 | 92 | 0.0 | 0.0 | 0.30 | 0.71 | 0.61 | 83 | 1006.7 |
| 20260506151541 | 12 | 92 | 0.0 | 1.6 | 0.36 | 0.69 | 0.56 | 83 | 1006.8 |
| 20260506150039 | 12 | 91 | 0.0 | 1.6 | 0.36 | 0.61 | 0.48 | 82 | 1007.0 |
| 20260506144544 | 12 | 104 | 0.0 | 1.6 | 0.33 | 0.53 | 0.41 | 81 | 1007.3 |
| 20260506143037 | 12 | 105 | 0.0 | 0.0 | 0.23 | 0.43 | 0.30 | 80 | 1007.6 |
| 20260506141536 | 12 | 104 | 0.0 | 1.6 | 0.15 | 0.30 | 0.18 | 79 | 1007.5 |
| 20260506140036 | 12 | 204 | 0.0 | 1.6 | 0.10 | 0.25 | 0.13 | 78 | 1007.7 |
| 20260506134533 | 12 | 217 | 0.0 | 1.6 | 0.08 | 0.20 | 0.08 | 78 | 1007.4 |
| 20260506133039 | 12 | 217 | 0.0 | 1.6 | 0.05 | 0.18 | 0.05 | 77 | 1007.2 |
| 20260506131534 | 12 | 217 | 0.0 | 1.6 | 0.03 | 0.15 | 0.03 | 77 | 1007.4 |
| 20260506130036 | 12 | 34 | 0.0 | 1.6 | 0.03 | 0.15 | 0.03 | 75 | 1007.5 |
| 20260506124532 | 12 | 136 | 0.0 | 1.6 | 0.00 | 0.13 | 0.00 | 75 | 1007.4 |
| 20260506123031 | 12 | 136 | 0.0 | 0.0 | 0.00 | 0.13 | 0.00 | 74 | 1007.9 |
| 20260506121531 | 12 | 136 | 0.0 | 0.0 | 0.00 | 0.13 | 0.00 | 75 | 1008.1 |
| 20260506120032 | 12 | 150 | 0.0 | 1.6 | 0.00 | 0.13 | 0.00 | 75 | 1008.2 |
| 20260506114532 | 12 | 84 | 0.0 | 1.6 | 0.00 | 0.13 | 0.00 | 76 | 1007.9 |
| 20260506113030 | 12 | 161 | 0.0 | 1.6 | 0.00 | 0.13 | 0.00 | 76 | 1007.8 |
| 20260506111529 | 12 | 95 | 0.0 | 1.6 | 0.00 | 0.13 | 0.00 | 75 | 1007.2 |
| 20260506110030 | 12 | 53 | 0.0 | 1.6 | 0.00 | 0.13 | 0.00 | 75 | 1007.8 |
| 20260506104554 | 12 | 77 | 0.0 | 1.6 | 0.00 | 0.20 | 0.00 | 76 | 1007.6 |
| 20260506103027 | 12 | 77 | 0.0 | 1.6 | 0.00 | 0.20 | 0.00 | 76 | 1007.3 |
| 20260506101529 | 12 | 76 | 0.0 | 1.6 | 0.00 | 0.20 | 0.00 | 76 | 1007.5 |
| 20260506100029 | 11 | 75 | 0.0 | 1.6 | 0.00 | 0.20 | 0.00 | 76 | 1007.1 |
| 20260506094532 | 11 | 106 | 0.0 | 0.0 | 0.00 | 0.20 | 0.00 | 76 | 1007.1 |
| 20260506093023 | 11 | 106 | 0.0 | 0.0 | 0.00 | 0.20 | 0.00 | 76 | 1007.2 |
| 20260506091523 | 11 | 106 | 0.0 | 0.0 | 0.00 | 0.20 | 0.00 | 76 | 1007.1 |
| 20260506090021 | 11 | 106 | 0.0 | 0.0 | 0.00 | 0.20 | 0.00 | 75 | 1007.2 |
| 20260506084519 | 12 | 106 | 0.0 | 0.0 | 0.00 | 0.20 | 0.00 | 75 | 1007.3 |
| 20260506083033 | 12 | 106 | 0.0 | 0.0 | 0.00 | 0.20 | 0.00 | 73 | 1007.6 |
| 20260506081514 | 12 | 106 | 0.0 | 0.0 | 0.00 | 0.20 | 0.00 | 72 | 1007.7 |
| 20260506073008 | 13 | 105 | 0.0 | 0.0 | 0.00 | 0.20 | 0.00 | 70 | 1008.3 |
| 20260506071506 | 13 | 105 | 0.0 | 0.0 | 0.00 | 0.20 | 0.00 | 68 | 1008.1 |
| 20260506061600 | 13 | 91 | 0.0 | 1.6 | 0.00 | 0.20 | 0.00 | 71 | 1008.6 |
| 20260506044600 | 15 | 43 | 0.0 | 1.6 | 0.00 | 0.20 | 0.00 | 68 | 1008.9 |
| 20260506043053 | 15 | 110 | 0.0 | 4.8 | 0.00 | 0.20 | 0.00 | 67 | 1008.8 |
| 20260506041546 | 15 | 82 | 0.0 | 1.6 | 0.00 | 0.20 | 0.00 | 67 | 1008.8 |
| 20260506040047 | 16 | 96 | 3.2 | 8.0 | 0.03 | 0.20 | 0.00 | 65 | 1008.6 |
| 20260506034537 | 16 | 82 | 3.2 | 8.0 | 0.03 | 0.20 | 0.20 | 66 | 1008.3 |
| 20260506033036 | 16 | 113 | 3.2 | 8.0 | 0.03 | 0.20 | 0.20 | 68 | 1008.2 |
| 20260506031539 | 16 | 103 | 0.0 | 8.0 | 0.03 | 0.20 | 0.20 | 70 | 1008.2 |
| 20260506030035 | 16 | 63 | 0.0 | 12.9 | 0.08 | 0.18 | 0.18 | 73 | 1008.4 |
| 20260506024541 | 16 | 88 | 0.0 | 1.6 | 0.08 | 0.18 | 0.18 | 76 | 1007.7 |
| 20260506023032 | 16 | 58 | 0.0 | 1.6 | 0.08 | 0.18 | 0.18 | 75 | 1007.6 |
| 20260506021547 | 16 | 21 | 0.0 | 1.6 | 0.10 | 0.18 | 0.18 | 72 | 1007.7 |
| 20260506020029 | 16 | 20 | 0.0 | 1.6 | 0.03 | 0.10 | 0.10 | 71 | 1007.8 |